W1LH-10 Weather Reports


time (UTC)temp
F
wind
direction
speed
knots
gust
knots
rain 1hr
in
rain 24hr
in
rain mn
in
humidity
%
barometer
mb
20260505100327 54 275 15.6 0.0 0.00 0.00 0.00 67 1007.3
20260505093333 52 254 14.8 0.0 0.00 0.00 0.00 70 1007.1
20260505090326 52 296 14.8 0.0 0.00 0.00 0.00 71 1007.3
20260505083320 51 290 13.9 0.0 0.00 0.00 0.00 72 1007.0
20260505080346 52 232 15.6 0.0 0.00 0.00 0.00 70 1007.3
20260505073328 51 260 12.2 0.0 0.00 0.00 0.00 73 1007.4
20260505070325 50 242 11.3 0.0 0.00 0.00 0.00 77 1007.6
20260505063319 46 246 7.0 0.0 0.00 0.00 0.00 85 1007.5
20260505060335 48 203 4.3 0.0 0.00 0.00 0.00 83 1007.7
20260505053321 49 195 1.7 0.0 0.00 0.00 0.00 81 1006.9
20260505050341 50 211 2.6 0.0 0.00 0.00 0.00 79 1007.1
20260505040402 48 243 6.1 0.0 0.00 0.00 0.06 83 1007.4
20260505033327 49 270 4.3 0.0 0.00 0.00 0.06 81 1007.2
20260505030342 48 245 6.1 0.0 0.00 0.00 0.06 85 1007.5
20260505023317 46 55 1.7 0.0 0.00 0.00 0.06 85 1006.9
20260505020331 46 288 0.9 0.0 0.00 0.00 0.06 84 1007.1
20260505013341 46 145 1.7 0.0 0.00 0.00 0.06 85 1006.9
20260505010319 47 340 3.5 0.0 0.00 0.00 0.06 85 1006.5
20260505003331 47 288 3.5 0.0 0.00 0.00 0.06 85 1006.2
20260505000330 47 29 2.6 0.0 0.00 0.00 0.06 85 1005.8
20260504233320 48 85 1.7 0.0 0.00 0.00 0.06 84 1005.4
20260504230332 49 350 3.5 0.0 0.00 0.00 0.06 82 1005.0
20260504223330 49 263 5.2 0.0 0.00 0.00 0.06 80 1004.3
20260504220332 50 318 3.5 0.0 0.00 0.00 0.06 82 1004.2
20260504213318 49 292 7.0 0.0 0.00 0.00 0.06 84 1004.0
20260504210334 48 302 5.2 0.0 0.00 0.00 0.06 85 1003.9
20260504203329 46 265 4.3 0.0 0.00 0.00 0.06 82 1003.7
20260504200324 46 315 4.3 0.0 0.00 0.00 0.06 82 1003.8
20260504193334 46 307 5.2 0.0 0.00 0.00 0.06 81 1003.5
20260504190330 45 253 5.2 0.0 0.00 0.00 0.06 73 1003.7
20260504183341 45 316 3.5 0.0 0.00 0.00 0.06 74 1003.8
20260504180338 45 262 5.2 0.0 0.00 0.00 0.06 78 1004.0
20260504173325 45 229 7.8 0.0 0.00 0.00 0.04 84 1003.9
20260504170320 50 300 8.7 0.0 0.00 0.00 0.00 68 1003.1
20260504160336 52 244 6.1 0.0 0.00 0.00 0.00 60 1003.4
20260504150315 49 273 7.0 0.0 0.00 0.00 0.00 62 1004.4
20260504140329 47 288 5.2 0.0 0.00 0.00 0.00 63 1004.9
20260504130320 43 311 5.2 0.0 0.00 0.00 0.00 69 1005.2
20260504110332 35 338 6.1 0.0 0.00 0.00 0.00 85 1004.4